Weather History for KAXS - June, 2012

Change the Weather History Date:

Saturday, June 23, 2012

  Actual Average (KLTS) Record (KLTS)
Temperature  
Mean Temperature 86 °F -  
Max Temperature 100 °F 89 °F 106 °F (2011)
Min Temperature 71 °F 68 °F 60 °F (2004)
Cooling Degree Days 20    
Growing Degree Days 36 (Base 50)    
Moisture  
Dew Point 58 °F    
Average Humidity 41    
Maximum Humidity 78    
Minimum Humidity 18    
Precipitation  
Precipitation 0.00 in - - ()
Sea Level Pressure  
Sea Level Pressure 29.90 in    
Wind  
Wind Speed 11 mph (SSE)    
Max Wind Speed 18 mph    
Max Gust Speed 26 mph    
Visibility 10 miles    
Events      
Averages and records for this station are not official NWS values.
T = Trace of Precipitation, MM = Missing Value Source: NWS Daily Summary

Daily Weather History Graph

Daily Weather History Graph

Search for Another Location

Airport or City:

Trip Planner

Search our weather history database for the weather conditions in past years. The results will help you decide how hot, cold, wet, or windy it might be!

Date:

Astronomy

Jun. 23, 2012 Rise Set
Actual Time 6:25 AM CDT 8:54 PM CDT
Civil Twilight 5:55 AM CDT 9:23 PM CDT
Nautical Twilight 5:19 AM CDT 10:00 PM CDT
Astronomical Twilight 4:38 AM CDT 10:40 PM CDT
Moon 10:19 AM CDT (6/23) 11:34 PM CDT (6/23)
Length of Visible Light 15h 28m
Length of Day
14h 28m
Waxing Crescent, 16% of the Moon is Illuminated
Jun 23
Waxing Crescent
Jun 26
First Quarter
Jul 3
Full
Jul 10
Last Quarter
Jul 18
New

Hourly Weather History & Observations

Time (CDT) Temp. Heat Index Dew Point Humidity Pressure Visibility Wind Dir Wind Speed Gust Speed Precip Events Conditions
12:15 AM 80.6 °F 82.3 °F 64.4 °F 58% 29.92 in 10.0 mi SE 10.4 mph - N/A   Clear
12:35 AM 80.6 °F 82.3 °F 64.4 °F 58% 29.92 in 10.0 mi SE 9.2 mph - N/A   Clear
12:55 AM 80.6 °F 82.3 °F 64.4 °F 58% 29.92 in 10.0 mi SSE 9.2 mph - N/A   Clear
1:15 AM 78.8 °F - 64.4 °F 61% 29.91 in 10.0 mi SE 9.2 mph - N/A   Clear
1:35 AM 78.8 °F - 64.4 °F 61% 29.90 in 10.0 mi SE 10.4 mph - N/A   Clear
1:55 AM 78.8 °F - 64.4 °F 61% 29.90 in 10.0 mi SE 9.2 mph - N/A   Clear
2:15 AM 77.0 °F - 64.4 °F 65% 29.90 in 10.0 mi SE 8.1 mph - N/A   Clear
2:35 AM 77.0 °F - 64.4 °F 65% 29.90 in 10.0 mi SE 8.1 mph - N/A   Clear
2:55 AM 75.2 °F - 64.4 °F 69% 29.90 in 10.0 mi SE 6.9 mph - N/A   Clear
3:15 AM 73.4 °F - 64.4 °F 73% 29.90 in 10.0 mi ESE 5.8 mph - N/A   Clear
3:35 AM 73.4 °F - 64.4 °F 73% 29.90 in 10.0 mi SSE 4.6 mph - N/A   Clear
3:55 AM 73.4 °F - 64.4 °F 73% 29.90 in 10.0 mi ESE 5.8 mph - N/A   Clear
4:15 AM 73.4 °F - 64.4 °F 73% 29.90 in 10.0 mi ESE 5.8 mph - N/A   Clear
4:35 AM 71.6 °F - 64.4 °F 78% 29.91 in 10.0 mi ESE 6.9 mph - N/A   Clear
5:15 AM 71.6 °F - 64.4 °F 78% 29.90 in 10.0 mi ESE 6.9 mph - N/A   Clear
5:55 AM 71.6 °F - 64.4 °F 78% 29.91 in 10.0 mi SE 5.8 mph - N/A   Clear
6:15 AM 71.6 °F - 64.4 °F 78% 29.91 in 10.0 mi ESE 6.9 mph - N/A   Clear
6:35 AM 71.6 °F - 64.4 °F 78% 29.92 in 10.0 mi SE 5.8 mph - N/A   Clear
6:55 AM 71.6 °F - 64.4 °F 78% 29.93 in 10.0 mi ESE 5.8 mph - N/A   Clear
7:15 AM 71.6 °F - 64.4 °F 78% 29.93 in 10.0 mi ESE 6.9 mph - N/A   Clear
7:35 AM 73.4 °F - 64.4 °F 73% 29.93 in 10.0 mi SE 5.8 mph - N/A   Clear
7:55 AM 75.2 °F - 64.4 °F 69% 29.94 in 10.0 mi SSE 4.6 mph - N/A   Clear
8:15 AM 77.0 °F - 64.4 °F 65% 29.94 in 10.0 mi SSE 5.8 mph - N/A   Clear
8:55 AM 82.4 °F 83.4 °F 62.6 °F 51% 29.95 in 10.0 mi South 8.1 mph - N/A   Clear
9:15 AM 82.4 °F 83.4 °F 62.6 °F 51% 29.96 in 10.0 mi South 8.1 mph - N/A   Clear
9:35 AM 86.0 °F 86.1 °F 60.8 °F 43% 29.96 in 10.0 mi South 11.5 mph - N/A   Clear
9:55 AM 87.8 °F 87.6 °F 60.8 °F 40% 29.95 in 10.0 mi South 10.4 mph - N/A   Clear
10:15 AM 89.6 °F 88.9 °F 59.0 °F 36% 29.95 in 10.0 mi SSW 12.7 mph - N/A   Clear
10:35 AM 91.4 °F 89.9 °F 57.2 °F 31% 29.94 in 10.0 mi South 15.0 mph 20.7 mph N/A   Clear
10:55 AM 91.4 °F 89.4 °F 55.4 °F 29% 29.94 in 10.0 mi SSW 17.3 mph 23.0 mph N/A   Clear
11:15 AM 93.2 °F 91.3 °F 55.4 °F 28% 29.93 in 10.0 mi SSW 15.0 mph 23.0 mph N/A   Clear
11:35 AM 95.0 °F 93.0 °F 55.4 °F 26% 29.93 in 10.0 mi SSW 16.1 mph 24.2 mph N/A   Clear
11:55 AM 95.0 °F 93.0 °F 55.4 °F 26% 29.92 in 10.0 mi SSW 16.1 mph 25.3 mph N/A   Clear
12:15 PM 96.8 °F 94.4 °F 53.6 °F 23% 29.92 in 10.0 mi South 13.8 mph 23.0 mph N/A   Clear
12:35 PM 96.8 °F 94.4 °F 53.6 °F 23% 29.92 in 10.0 mi South 16.1 mph 19.6 mph N/A   Clear
12:55 PM 96.8 °F 94.4 °F 53.6 °F 23% 29.92 in 10.0 mi SSW 15.0 mph 24.2 mph N/A   Clear
1:15 PM 96.8 °F 94.4 °F 53.6 °F 23% 29.92 in 10.0 mi SSW 16.1 mph - N/A   Clear
1:35 PM 98.6 °F 96.4 °F 53.6 °F 22% 29.91 in 10.0 mi South 16.1 mph 23.0 mph N/A   Clear
1:55 PM 98.6 °F 96.4 °F 53.6 °F 22% 29.90 in 10.0 mi South 15.0 mph 23.0 mph N/A   Clear
2:15 PM 98.6 °F - 51.8 °F 21% 29.89 in 10.0 mi South 18.4 mph 24.2 mph N/A   Clear
2:35 PM 98.6 °F - 51.8 °F 21% 29.89 in 10.0 mi SSW 18.4 mph 23.0 mph N/A   Clear
2:55 PM 98.6 °F - 50.0 °F 19% 29.88 in 10.0 mi South 17.3 mph 20.7 mph N/A   Clear
3:15 PM 100.4 °F - 50.0 °F 18% 29.88 in 10.0 mi SSW 17.3 mph 23.0 mph N/A   Clear
3:35 PM 100.4 °F - 50.0 °F 18% 29.87 in 10.0 mi SSW 11.5 mph 26.5 mph N/A   Clear
3:55 PM 100.4 °F - 50.0 °F 18% 29.87 in 10.0 mi SSW 16.1 mph 24.2 mph N/A   Clear
4:15 PM 100.4 °F - 51.8 °F 20% 29.87 in 10.0 mi SSW 17.3 mph 23.0 mph N/A   Clear
4:35 PM 100.4 °F - 51.8 °F 20% 29.86 in 10.0 mi SSW 13.8 mph 25.3 mph N/A   Clear
4:55 PM 100.4 °F - 50.0 °F 18% 29.86 in 10.0 mi SSW 13.8 mph 23.0 mph N/A   Clear
5:15 PM 100.4 °F - 51.8 °F 20% 29.86 in 10.0 mi SSE 15.0 mph 24.2 mph N/A   Clear
5:35 PM 100.4 °F - 50.0 °F 18% 29.86 in 10.0 mi South 16.1 mph - N/A   Clear
5:55 PM 100.4 °F - 50.0 °F 18% 29.86 in 10.0 mi South 16.1 mph 23.0 mph N/A   Clear
6:15 PM 100.4 °F - 51.8 °F 20% 29.86 in 10.0 mi SSW 18.4 mph - N/A   Clear
6:35 PM 98.6 °F - 50.0 °F 19% 29.85 in 10.0 mi South 13.8 mph - N/A   Clear
7:15 PM 98.6 °F - 51.8 °F 21% 29.85 in 7.0 mi South 12.7 mph - N/A   Clear
7:35 PM 98.6 °F - 51.8 °F 21% 29.85 in 10.0 mi South 11.5 mph - N/A   Clear
7:55 PM 96.8 °F 94.4 °F 53.6 °F 23% 29.85 in 10.0 mi South 11.5 mph - N/A   Clear
8:15 PM 96.8 °F 94.4 °F 53.6 °F 23% 29.86 in - South 16.1 mph - N/A   Clear
8:35 PM 95.0 °F 92.7 °F 53.6 °F 25% 29.86 in 10.0 mi South 12.7 mph - N/A   Clear
8:55 PM 93.2 °F 90.8 °F 53.6 °F 26% 29.87 in 10.0 mi South 12.7 mph - N/A   Clear
9:15 PM 91.4 °F 89.1 °F 53.6 °F 28% 29.87 in 10.0 mi SSE 11.5 mph - N/A   Clear
9:35 PM 89.6 °F 87.7 °F 55.4 °F 31% 29.88 in 10.0 mi SSE 15.0 mph - N/A   Clear
9:55 PM 89.6 °F 87.7 °F 55.4 °F 31% 29.89 in 10.0 mi SSE 13.8 mph - N/A   Clear
10:15 PM 87.8 °F 86.1 °F 55.4 °F 33% 29.90 in 10.0 mi SSE 15.0 mph - N/A   Clear
10:35 PM 87.8 °F 86.5 °F 57.2 °F 35% 29.91 in 10.0 mi SSE 13.8 mph - N/A   Clear
10:55 PM 87.8 °F 87.1 °F 59.0 °F 38% 29.92 in 10.0 mi SSE 13.8 mph - N/A   Clear
11:15 PM 87.8 °F 87.1 °F 59.0 °F 38% 29.92 in 10.0 mi SSE 13.8 mph - N/A   Clear
11:35 PM 86.0 °F 85.4 °F 59.0 °F 40% 29.93 in 10.0 mi SSE 15.0 mph - N/A   Clear
11:55 PM 84.2 °F 83.8 °F 59.0 °F 42% 29.93 in 10.0 mi SSE 11.5 mph - N/A   Clear